ORBIT - CRT NEWS
           
             
             
             
             
             
Open Panel

E cosi dopo piu di due mesi siamo tornati in Nuova Zelanda. E' veramente un piacere avere questo eccezionale dato considerata la misera potenza di 100mW e un'antenna verticale di 7 metri. Il fenomeno è sicuramente dovuto alla tempesta geomagnetica che si è verificata la scorsa notte fino a kp5 con anche l'allungarsi delle ore di luce, mi da l'impressione che non sarà un fenomeno isolato...  Si noti sulla mappa anche la stazione tedesca in Antartide, oltre a Hong Kong e India, scarse davvero le stazioni da USA che di solito sono tantissime....  Vediamo il log... 

Time Call MHz SNR Drift Grid Pwr Reporter RGrid km az
 2018-02-19 23:28   IQ6KX   10.140179   -24   0   JN63so   0.1   AK4SK   EM60vl   8436   299 
 2018-02-19 18:44   IQ6KX   10.140179   -5   0   JN63so   0.1   EA1FAQ   IN71pn   1508   268 
 2018-02-19 18:28   IQ6KX   10.140159   -28   0   JN63so   0.1   VU3KAZ   MK82tu   6948   99 
 2018-02-19 18:28   IQ6KX   10.140189   -22   0   JN63so   0.1   GJ3YHU   IN89ve   1354   303 
 2018-02-19 18:12   IQ6KX   10.140192   -28   0   JN63so   0.1   G4CUI   IO93fi   1547   320 
 2018-02-19 17:56   IQ6KX   10.140181   -25   0   JN63so   0.1   M0GNM   IO91wh   1334   315 
 2018-02-19 17:42   IQ6KX   10.140207   -30   0   JN63so   0.1   PA0MBO   JO32ke   1075   335 
 2018-02-19 17:42   IQ6KX   10.140176   -9   0   JN63so   0.1   ON7AN   JO20ek   1028   321 
 2018-02-19 17:28   IQ6KX   10.140181   -9   0   JN63so   0.1   F4TTR   JN18oj   958   307 
 2018-02-19 17:00   IQ6KX   10.140154   -25   0   JN63so   0.1   DF3EY   JO31fl   1023   331 
 2018-02-19 16:58   IQ6KX   10.140216   -32   0   JN63so   0.1   DK8JP/2   JO31gk   1016   331 
 2018-02-19 16:00   IQ6KX   10.140181   -25   0   JN63so   0.1   G3IGU   IO93jm   1541   321 
 2018-02-19 15:52   IQ6KX   10.140179   -5   0   JN63so   0.1   ON4LAO   JO10rn   1085   319 
 2018-02-19 15:52   IQ6KX   10.140210   -15   2   JN63so   0.1   DK2CH   JO52gd   976   348 
 2018-02-19 14:52   IQ6KX   10.140189   -25   0   JN63so   0.1   TA4/G8SCU   KM56ov   1670   111 
 2018-02-19 14:36   IQ6KX   14.097082   -20   0   JN63so   0.1   SM6BWH   JO67dq   1568   357 
 2018-02-19 13:38   IQ6KX   10.140222   -28   2   JN63so   0.1   G4PMB   IO92ud   1398   318 
 2018-02-19 11:52   IQ6KX   10.140144   -27   0   JN63so   0.1   G8NDL   JO01cj   1321   316 
 2018-02-19 09:48   IQ6KX   10.140180   +2   0   JN63so   0.1   LZ1UBO   KN12wv   840   92 
 2018-02-19 08:32   IQ6KX   10.140215   -17   0   JN63so   0.1   DL4QB   JO31   1005   333 
 2018-02-19 08:30   IQ6KX   10.140178   -27   0   JN63so   0.1   SM7ETW   JO77ls   1578   3 
 2018-02-19 08:28   IQ6KX   10.140184   -13   0   JN63so   0.1   2E0NGV   IO82tc   1512   314 
 2018-02-19 08:28   IQ6KX   10.140184   +5   0   JN63so   0.1   F5OIH   JN06ci   1091   291 
 2018-02-19 08:28   IQ6KX   10.140179   -15   0   JN63so   0.1   M0TAZ   JO01cn   1332   316 
 2018-02-19 08:08   IQ6KX   10.140179   -28   0   JN63so   0.1   G3WUN   IO91   1397   314 
 2018-02-19 08:08   IQ6KX   10.140183   -21   0   JN63so   0.1   SV1DAR   KM17vx   1064   122 
 2018-02-19 07:58   IQ6KX   10.140176   -25   0   JN63so   0.1   OH8GKP   KP24rt   2473   13 
 2018-02-19 07:58   IQ6KX   10.140158   -20   0   JN63so   0.1   M1GEO   JO02ok   1340   321 
 2018-02-19 06:38   IQ6KX   10.140179   -29   0   JN63so   0.1   OH5KFP   KP20fx   2063   17 
 2018-02-19 04:20   IQ6KX   10.140180   -26   0   JN63so   0.1   ZL1KFM   RF72   18311   73 
 2018-02-19 01:48   IQ6KX   10.140171   -22   0   JN63so   0.1   V31TF   EK58ul   9512   291 
 2018-02-18 22:12   IQ6KX   10.140179   -23   0   JN63so   0.1   K9AN   EN50wc   7850   307 
 2018-02-18 21:16   IQ6KX   10.140180   -24   0   JN63so   0.1   N2HQI   FN13sa   6886   304 
 2018-02-18 17:46   IQ6KX   10.140187   -12   0   JN63so   0.1   G4UDU   IO90uv   1318   313 
 2018-02-18 17:08   IQ6KX   10.140195   -27   0   JN63so   0.1   G0OHK   IO94   1604   324 
 2018-02-18 16:42   IQ6KX   10.140179   -26   0   JN63so   0.1   DK8FT/A   JN58oe   541   341 
 2018-02-18 16:42   IQ6KX   10.140178   -14   0   JN63so   0.1   DK8FT/B   JN58oe   541   341 
 2018-02-18 16:42   IQ6KX   10.140179   -24   0   JN63so   0.1   DK8FT   JN58oe   541   341 
 2018-02-18 16:32   IQ6KX   10.140180   -25   0   JN63so   0.1   LA5VSA   JO49ub   1739   353 
 2018-02-18 16:32   IQ6KX   10.140191   -22   0   JN63so   0.1   DH5AAF   JN58ki   567   340 
 2018-02-18 16:28   IQ6KX   10.140202   -19   0   JN63so   0.1   DL2TR   JN49nc   699   333 
 2018-02-18 16:20   IQ6KX   10.140183   -14   0   JN63so   0.1   DK3SML   JN49sf   696   335 
 2018-02-18 16:20   IQ6KX   10.140181   -17   0   JN63so   0.1   DJ2RD   JO40cc   828   333 
 2018-02-18 16:20   IQ6KX   10.140180   -27   -1   JN63so   0.1   G0VXE   IO94sg   1560   324 
 2018-02-18 16:14   IQ6KX   10.140185   -24   -1   JN63so   0.1   DL3NGN   JN59mk   676   344 
 2018-02-18 16:10   IQ6KX   10.140203   -27   0   JN63so   0.1   VR2BG   OL72bi   9117   67 

You have no rights to post comments

PER LA PUBBLICITA'
SU QUESTO SPAZIO
CHIAMA 
340.666.74.51

CRT SHOUT

IZ6PPU - 17/03/2018 - 18:28

Questa tempesta geomagnetica lascia e poi si ripresenta il valore massimo è debole solo kp4, Nulla di eccezionale, probabile comunque una ripresa... Seguiteci anche su METEOLINO

IW6ATQ - 15/03/2018 - 11:14

La tempesta magnetica è durata fino alle 4 di questa mattina, in 20 metri al momento la propagazione è chiusa completamente. Sui 40 metri questa mattina a tratti discreta con zone che abitualmente in questo periodo non arrivano. Vento solare a 464km/sec ancora un po piu forte della norma.

IW6ATQ - 15/03/2018 - 02:32

La tempesta geomagnetica ha ripresa dopo una pausa di poco oltre le tre ore, al momento lo scudo geomagnetico segna kp4 . Questa mattina nel caso aggiorneremo su:METEOLINO

IW6ATQ-8 - 06/02/2018 - 01:07

Mi chiedevano quando cambierà in meglio la propagazione? Sicuramente un miglioramento avverrà sopratutto in 20 metri con l'allungarsi delle giornate, miglioramento sicuramente durante l'estate per tutte le bande. Mentre il miglioramento decisivo a partire dal 2021/2022. L'anno piu buio è questo 2018 e parte del 2019 poi inizierà il ciclo denominato 25, sperando in qualche bel brillamento solare che almeno per qualche giorno illuminerà le nostre fasce ionosferiche regalandoci un po di propagazione... (IW6ATQ, W4ISS, CRT#001)

Your browser does not support the HTML5 canvas tag.
Cancel

MAGNETIC FIELD

SOLAR ACTIVITY

ATTIVITA' SOLARE, clicca qui per andare alla nostra pagina aggiornata curata da iw6atq mentre trovi le aurore del periodo clicca qui clicca sulle foto per ingrandirle...

LINKS LEFT





 

 

 

Chi è Online

Abbiamo 3561 visitatori e nessun utente online

Status C.R.T.

FT8 attività serale 
WSPR 100mw ATTIVO 24/24H
www.stream.me/iw6atq  Live
Discovery 2 Radio online


 Questo indirizzo email è protetto dagli spambots. È necessario abilitare JavaScript per vederlo.